Weather History for Lamar, CO

Change the Weather History Date:

Tuesday, October 16, 2012

  Actual Average Record
Temperature  
Mean Temperature 61 °F 53 °F  
Max Temperature 80 °F 70 °F 92 °F (1921)
Min Temperature 42 °F 35 °F 19 °F (2001)
Degree Days  
Heating Degree Days 4 12  
Month to date heating degree days 178 150  
Since 1 July heating degree days 227 233  
Cooling Degree Days 0 0  
Month to date cooling degree days 1 8  
Year to date cooling degree days 1626 1120  
Growing Degree Days 11 (Base 50)    
Moisture  
Dew Point 36 °F    
Average Humidity 53    
Maximum Humidity 89    
Minimum Humidity 16    
Precipitation  
Precipitation 0.00 in 0.03 in 0.76 in (1937)
Month to date precipitation 0.36 0.42  
Year to date precipitation 5.86 14.04  
Sea Level Pressure  
Sea Level Pressure 29.60 in    
Wind  
Wind Speed 10 mph (SSW)    
Max Wind Speed 24 mph    
Max Gust Speed 35 mph    
Visibility 10 miles    
Events      
T = Trace of Precipitation, MM = Missing Value Source: NWS Daily Summary

Daily Weather History Graph

Daily Weather History Graph

Search for Another Location

Airport:

Trip Planner

Search our weather history database for the weather conditions in past years. The results will help you decide how hot, cold, wet, or windy it might be!

Date:

Astronomy

Oct. 16, 2012 Rise Set
Actual Time 7:00 AM MDT 6:10 PM MDT
Civil Twilight 6:34 AM MDT 6:37 PM MDT
Nautical Twilight 6:03 AM MDT 7:08 PM MDT
Astronomical Twilight 5:33 AM MDT 7:38 PM MDT
Moon 8:24 AM MDT (10/16) 6:59 PM MDT (10/16)
Length of Visible Light 12h 03m
Length of Day
11h 10m
New Moon, 2% of the Moon is Illuminated
Oct 16
New Moon
Oct 21
First Quarter
Oct 29
Full
Nov 6
Last Quarter
Nov 13
New

Hourly Weather History & Observations

Time (MDT) Temp. Windchill Dew Point Humidity Pressure Visibility Wind Dir Wind Speed Gust Speed Precip Events Conditions
12:53 AM 42.1 °F 38.4 °F 39.9 °F 92% 29.72 in 10.0 mi SSW 5.8 mph - N/A   Clear
1:53 AM 45.0 °F 42.6 °F 41.0 °F 86% 29.73 in 10.0 mi SW 4.6 mph - N/A   Clear
2:53 AM 44.1 °F 40.8 °F 41.0 °F 89% 29.73 in 10.0 mi SW 5.8 mph - N/A   Clear
3:53 AM 45.0 °F 39.3 °F 41.0 °F 86% 29.71 in 10.0 mi SSW 11.5 mph - N/A   Clear
4:53 AM 43.0 °F 37.7 °F 39.0 °F 86% 29.73 in 10.0 mi SSW 9.2 mph - N/A   Clear
6:53 AM 43.0 °F 36.8 °F 37.0 °F 80% 29.78 in 10.0 mi SSW 11.5 mph - N/A   Clear
7:53 AM 46.9 °F - 39.0 °F 74% 29.80 in 10.0 mi SW 5.8 mph - N/A   Clear
8:53 AM 55.9 °F - 36.0 °F 47% 29.80 in 10.0 mi West 11.5 mph - N/A   Clear
9:53 AM 64.0 °F - 35.1 °F 34% 29.76 in 10.0 mi WNW 6.9 mph - N/A   Clear
10:53 AM 69.1 °F - 35.1 °F 29% 29.75 in 10.0 mi Variable 4.6 mph - N/A   Clear
11:53 AM 72.0 °F - 35.1 °F 26% 29.71 in 10.0 mi Variable 3.5 mph - N/A   Clear
12:53 PM 73.9 °F - 34.0 °F 23% 29.67 in 10.0 mi SSW 4.6 mph - N/A   Clear
1:53 PM 75.9 °F - 33.1 °F 21% 29.59 in 10.0 mi South 6.9 mph - N/A   Clear
2:53 PM 80.1 °F - 32.0 °F 17% 29.55 in 10.0 mi South 11.5 mph 18.4 mph N/A   Clear
3:53 PM 79.0 °F - 30.0 °F 17% 29.50 in 10.0 mi South 11.5 mph - N/A   Clear
4:53 PM 80.1 °F - 30.9 °F 17% 29.46 in 10.0 mi South 17.3 mph 23.0 mph N/A   Clear
5:53 PM 75.0 °F - 33.1 °F 22% 29.45 in 10.0 mi South 11.5 mph - N/A   Clear
6:53 PM 66.0 °F - 36.0 °F 33% 29.45 in 10.0 mi SE 6.9 mph - N/A   Clear
7:53 PM 66.9 °F - 35.1 °F 31% 29.41 in 10.0 mi South 18.4 mph 25.3 mph N/A   Clear
8:53 PM 66.0 °F - 35.1 °F 32% 29.38 in 10.0 mi South 20.7 mph 27.6 mph N/A   Clear
9:53 PM 60.1 °F - 35.1 °F 39% 29.39 in 10.0 mi SW 10.4 mph - N/A   Clear
10:53 PM 59.0 °F - 33.1 °F 38% 29.38 in 10.0 mi SW 10.4 mph - N/A   Clear
11:53 PM 59.0 °F - 32.0 °F 36% 29.39 in 10.0 mi WSW 11.5 mph - N/A   Clear